Wind_Speed
15 17 20 22 24 26 27 28 29 31 30 30 30 30 29 28 30 33 35 35 34 33 30 28 28 27 25 25 23 24 25 25 24 23 23 23 23 24 25 25 26 28 29 30
13 16 20 21 23 24 25 26 26 28 29 29 29 28 28 28 29 31 33 35 34 33 31 29 29 28 27 26 26 26 27 27 27 28 28 27 27 27 28 30 31 32 32 33
13 16 19 20 22 23 24 25 26 27 28 27 27 26 26 27 27 29 31 33 33 33 32 31 31 30 29 28 28 27 28 29 30 30 32 31 30 31 32 33 35 37 37 34
13 15 18 20 21 22 21 24 26 27 25 23 24 20 25 26 27 27 28 30 32 33 33 33 33 32 31 30 29 28 28 29 30 31 32 33 33 34 34 35 35 37 37 33
12 14 17 19 20 21 22 24 25 26 26 23 23 20 23 25 26 26 26 27 29 32 34 35 35 35 34 32 31 30 30 31 32 31 31 32 32 33 34 35 35 34 33 32
11 12 15 17 19 20 22 24 25 25 23 22 23 21 23 25 25 24 24 25 26 28 31 33 36 36 34 33 32 31 32 31 32 32 33 33 32 33 33 35 35 34 34 34
8 10 12 16 17 19 21 22 21 20 21 21 24 23 23 23 23 23 23 23 23 25 27 29 32 34 35 35 34 33 32 32 32 33 33 34 34 35 37 38 39 38 38 37
5 7 11 14 16 18 20 22 18 15 17 20 25 25 25 22 21 22 22 22 22 24 26 27 29 32 34 34 34 34 34 33 33 36 36 36 38 39 40 41 42 42 42 40
7 7 11 13 16 18 19 21 20 19 18 18 23 26 25 24 23 22 23 23 23 25 26 28 29 30 32 33 34 34 35 35 36 37 38 39 40 41 43 44 45 46 45 43
9 9 10 12 15 17 19 20 21 18 15 16 21 24 24 24 24 23 23 24 25 26 28 29 30 31 33 34 34 35 36 37 38 39 41 42 43 45 45 46 47 48 47 47
9 9 9 11 13 14 17 19 20 18 17 14 17 23 23 24 25 25 25 26 27 28 30 31 32 33 34 35 36 37 39 40 41 42 43 44 45 45 47 47 48 47 47 48
8 8 8 10 12 14 16 17 18 17 19 19 15 21 22 23 24 25 26 27 29 30 31 32 33 35 36 37 38 39 40 41 42 43 43 44 45 46 45 46 46 47 47 46
6 7 7 7 10 13 15 16 17 18 18 18 18 22 22 23 25 26 28 29 31 32 34 35 36 37 39 39 40 41 42 43 43 44 45 45 45 45 45 45 46 46 45 45
5 7 9 10 12 13 14 15 16 16 16 18 21 24 24 25 27 28 29 31 32 33 35 36 37 38 39 40 40 41 42 43 43 42 42 42 42 44 43 43 43 44 45 45
4 6 8 10 11 13 14 16 17 18 19 21 23 24 25 26 28 29 29 30 31 32 33 34 35 35 36 38 38 39 39 40 40 40 41 41 41 41 42 43 44 44 45 45
2 3 5 8 10 13 15 16 18 19 20 22 23 24 24 25 26 27 27 29 30 30 30 32 32 33 33 34 35 36 36 37 37 37 38 39 39 40 41 42 42 43 44 45
2 0 3 6 8 10 14 15 17 19 20 22 23 23 24 24 24 25 26 27 27 29 30 29 29 28 29 29 30 30 31 32 33 34 35 37 37 38 39 40 41 42 43 44
5 3 2 3 5 8 10 12 14 16 18 19 21 22 22 22 22 23 24 25 25 25 25 25 25 25 26 27 27 28 29 30 31 31 32 34 35 36 37 37 38 39 41 42
7 6 4 3 4 6 8 9 11 13 15 16 17 18 18 19 19 20 20 21 22 22 22 23 23 23 24 24 25 25 26 27 28 28 29 31 32 33 34 35 36 37 39 40
9 8 6 4 4 5 6 7 9 11 12 13 14 15 15 16 17 17 18 19 20 20 20 21 21 22 22 23 23 24 25 25 26 26 28 29 30 30 31 32 33 34 35 36
9 9 8 7 5 5 6 7 8 8 10 11 12 12 12 13 14 14 15 16 17 17 18 19 20 20 20 21 21 21 22 23 24 24 25 26 26 27 27 28 30 31 32 33
10 10 9 8 7 6 6 6 7 8 8 8 8 8 10 11 11 11 12 13 14 15 16 17 18 18 18 19 19 20 21 21 22 22 23 23 23 24 25 26 27 28 29 29
10 10 10 9 9 8 7 7 7 7 6 6 5 6 6 7 8 9 10 11 12 13 14 15 15 16 17 18 18 19 19 20 20 20 20 21 21 22 23 23 24 25 25 24
10 10 11 11 10 10 9 9 8 8 6 5 5 5 5 6 6 7 8 9 10 11 12 13 14 15 16 17 17 18 19 19 18 18 19 19 19 19 20 21 21 22 21 21
11 11 12 12 12 11 10 10 9 8 6 5 5 5 5 5 5 6 6 7 8 9 10 11 13 14 15 16 17 17 17 17 17 17 18 17 17 18 18 18 19 19 18 17
11 12 12 12 13 12 11 10 10 8 7 6 6 6 5 5 5 5 6 6 8 9 10 11 13 14 15 16 16 16 15 15 15 16 15 16 16 16 16 16 16 16 15 14
Wind_Direction
234 227 222 219 214 212 211 209 210 213 214 214 218 222 223 222 222 223 224 225 226 227 230 231 230 230 231 235 236 235 235 234 237 241 246 249 253 256 258 259 261 264 265 267
231 225 221 217 213 210 208 206 207 211 211 212 216 219 220 221 223 223 224 225 228 229 229 228 231 231 234 237 237 239 241 241 244 244 244 248 252 254 258 259 260 263 264 268
229 225 219 215 211 208 205 201 203 207 208 210 215 219 218 220 224 224 225 225 228 229 229 229 232 232 235 238 240 243 244 243 245 248 249 250 253 254 257 260 261 264 266 269
229 224 217 212 209 206 203 201 202 204 202 209 211 218 219 220 223 225 226 227 228 228 228 230 233 235 238 241 244 245 246 251 254 255 253 254 256 256 259 265 267 269 266 269
229 222 215 210 207 204 201 199 200 202 201 205 208 209 224 222 223 225 226 228 228 228 229 230 233 236 239 241 243 246 251 256 259 258 257 258 258 263 265 267 273 273 275 277
226 219 213 209 206 203 201 198 199 202 203 208 209 209 224 223 224 225 226 228 229 230 231 232 233 236 239 241 244 250 252 256 261 261 262 262 264 267 270 273 279 284 285 282
226 217 211 206 203 202 199 195 196 201 204 213 214 214 223 224 225 227 228 229 230 231 232 232 234 236 240 242 245 252 255 258 262 264 266 268 270 273 276 281 284 288 288 287
212 219 210 203 198 198 198 193 187 200 210 218 217 221 224 226 226 226 229 231 232 232 232 234 236 237 241 244 247 252 257 260 264 267 270 272 274 278 281 285 286 289 289 291
177 200 203 199 197 194 196 193 196 195 203 213 222 225 226 226 227 228 230 233 235 234 235 238 241 243 246 249 251 256 260 263 266 270 275 278 278 279 283 284 286 288 291 290
176 177 189 190 192 196 195 199 202 197 207 219 229 230 230 228 229 231 233 234 237 238 240 243 246 248 250 253 256 259 263 267 270 274 278 279 280 281 282 285 286 289 289 289
172 169 184 185 188 193 197 202 204 205 206 216 237 236 233 234 234 234 234 235 238 241 244 247 249 252 254 256 259 264 267 270 274 277 279 280 281 282 283 284 285 286 285 286
175 174 191 195 195 198 200 205 208 211 222 216 226 239 236 237 237 237 238 239 241 244 246 250 253 256 259 261 263 266 269 272 274 277 278 279 280 281 282 282 282 282 280 280
184 184 188 207 208 207 210 214 219 221 227 231 234 245 240 242 241 242 243 244 247 249 251 254 257 259 261 264 266 268 270 272 274 275 276 277 279 280 279 279 279 278 278 279
194 196 195 209 217 219 221 224 227 230 233 240 239 245 247 248 249 249 250 250 251 253 255 258 260 261 263 265 267 268 270 271 272 273 276 277 277 277 275 275 275 276 278 279
197 212 217 223 228 227 229 230 233 235 236 241 247 250 252 253 255 256 256 256 258 258 259 261 262 263 264 265 266 268 269 270 272 273 274 275 276 274 274 275 276 278 279 280
200 215 223 231 234 237 238 239 241 243 246 250 254 255 256 257 258 259 260 261 262 262 263 264 265 265 266 267 267 268 269 270 271 272 273 273 274 275 276 278 279 280 281 282
59 297 248 245 242 246 248 246 246 249 251 254 257 258 258 257 258 259 261 261 263 263 264 265 267 267 266 266 269 269 270 271 272 272 271 271 273 275 277 279 281 282 283 284
34 22 341 283 259 256 261 258 257 257 258 259 261 261 260 259 259 259 260 260 261 260 262 263 263 264 266 268 269 268 269 271 271 272 273 275 276 279 281 282 283 285 286 288
35 30 18 336 293 279 274 268 265 265 265 263 263 261 262 261 259 258 257 260 262 263 265 264 264 264 265 267 268 269 271 272 273 275 277 279 281 284 285 287 289 291 293 295
32 28 20 360 332 312 298 290 279 273 271 267 267 266 264 262 259 257 258 260 261 263 263 263 263 264 266 269 272 274 275 278 280 281 283 285 287 288 290 292 294 296 297 298
31 27 22 12 355 336 321 306 297 289 284 275 269 267 263 260 260 258 253 253 255 258 261 264 267 268 271 274 277 279 281 283 285 287 289 290 292 294 297 299 301 303 303 304
28 26 23 17 10 358 343 329 316 306 301 290 275 268 263 260 258 258 260 260 261 267 269 270 271 273 277 280 282 284 286 288 289 291 293 295 298 300 302 304 306 308 309 309
28 25 22 20 16 8 1 349 341 332 322 313 296 281 279 273 269 267 268 269 269 271 273 274 277 280 282 283 286 288 290 292 294 295 296 298 301 304 306 307 310 313 314 315
26 22 21 19 16 13 8 1 355 350 345 335 323 310 297 292 288 283 278 277 279 279 281 283 284 285 286 288 289 292 294 296 297 298 300 302 304 306 309 311 314 317 319 322
28 23 20 18 15 13 9 4 360 357 354 350 345 336 327 325 313 305 297 293 291 292 293 292 292 292 293 293 294 295 296 297 299 301 301 302 304 307 310 314 318 322 325 330
27 23 19 16 13 10 7 5 3 2 357 353 350 347 344 337 329 322 314 306 303 302 302 301 300 300 300 299 298 297 297 298 300 301 303 305 306 309 313 318 322 325 329 335
Height
5763 5767 5769 5772 5776 5779 5784 5789 5794 5799 5804 5810 5814 5818 5822 5826 5830 5834 5839 5843 5848 5851 5854 5858 5861 5863 5866 5868 5870 5871 5872 5873 5874 5875 5875 5875 5875 5875 5875 5874 5873 5873 5871 5870
5761 5763 5765 5768 5772 5776 5781 5786 5791 5795 5800 5805 5810 5814 5818 5822 5826 5830 5834 5839 5843 5846 5850 5853 5856 5859 5862 5864 5866 5867 5868 5869 5869 5870 5870 5870 5869 5869 5869 5868 5867 5866 5865 5863
5758 5760 5762 5765 5769 5773 5778 5783 5788 5792 5796 5801 5807 5811 5814 5818 5821 5825 5830 5834 5838 5842 5845 5848 5852 5854 5857 5859 5860 5861 5862 5862 5863 5863 5863 5863 5863 5863 5862 5861 5860 5859 5857 5856
5755 5757 5759 5762 5766 5771 5776 5780 5784 5789 5795 5800 5805 5809 5811 5814 5817 5821 5825 5829 5833 5837 5840 5844 5847 5849 5852 5854 5855 5856 5856 5857 5857 5857 5856 5856 5856 5855 5854 5854 5853 5851 5849 5848
5752 5754 5756 5760 5764 5768 5773 5777 5782 5786 5791 5797 5801 5807 5807 5809 5813 5817 5820 5824 5828 5831 5835 5838 5841 5844 5846 5848 5850 5851 5851 5851 5851 5850 5850 5849 5849 5849 5848 5847 5846 5844 5842 5841
5750 5752 5754 5758 5762 5766 5770 5775 5780 5784 5790 5795 5798 5803 5804 5805 5809 5813 5816 5820 5823 5826 5829 5832 5835 5837 5840 5842 5844 5844 5845 5845 5845 5844 5843 5842 5842 5841 5840 5840 5838 5836 5835 5834
5749 5751 5753 5756 5760 5764 5769 5775 5780 5785 5789 5792 5794 5798 5800 5802 5805 5809 5812 5815 5818 5821 5824 5826 5829 5832 5834 5836 5837 5839 5839 5839 5839 5838 5837 5836 5835 5834 5833 5832 5831 5829 5828 5826
5750 5752 5752 5755 5759 5763 5767 5773 5781 5787 5789 5790 5791 5793 5797 5799 5802 5805 5808 5811 5814 5816 5819 5821 5823 5826 5828 5830 5831 5832 5833 5833 5832 5832 5831 5830 5829 5828 5826 5825 5824 5822 5819 5818
5749 5752 5752 5754 5757 5761 5765 5770 5776 5781 5785 5788 5788 5790 5793 5796 5798 5801 5804 5807 5809 5812 5814 5816 5818 5820 5822 5823 5825 5826 5826 5826 5826 5825 5824 5823 5821 5820 5819 5818 5816 5814 5811 5809
5747 5750 5752 5753 5757 5760 5764 5768 5772 5778 5782 5785 5785 5787 5789 5792 5795 5797 5800 5802 5805 5807 5809 5811 5813 5814 5816 5817 5818 5819 5819 5819 5818 5818 5817 5816 5814 5813 5811 5809 5807 5805 5802 5800
5747 5750 5753 5754 5756 5760 5763 5766 5770 5775 5779 5783 5783 5785 5785 5788 5790 5793 5795 5798 5800 5802 5804 5805 5806 5808 5808 5809 5810 5811 5811 5810 5810 5809 5808 5806 5805 5804 5802 5800 5798 5795 5793 5790
5748 5751 5753 5754 5756 5758 5761 5764 5768 5773 5774 5777 5781 5782 5781 5783 5785 5788 5790 5792 5794 5796 5797 5798 5800 5801 5801 5802 5802 5802 5802 5802 5801 5800 5798 5797 5795 5794 5792 5790 5787 5785 5783 5780
5748 5751 5753 5755 5757 5758 5759 5762 5765 5768 5770 5773 5777 5778 5776 5778 5780 5782 5784 5786 5787 5789 5790 5791 5792 5793 5793 5794 5794 5794 5793 5792 5792 5790 5789 5787 5785 5784 5782 5779 5777 5775 5772 5769
5748 5750 5752 5755 5755 5756 5757 5760 5762 5765 5768 5769 5770 5770 5772 5773 5774 5776 5777 5779 5780 5781 5782 5783 5784 5784 5784 5784 5784 5784 5783 5783 5781 5780 5779 5777 5775 5773 5771 5769 5766 5764 5761 5758
5748 5749 5749 5750 5752 5753 5755 5756 5758 5760 5762 5764 5764 5765 5766 5767 5768 5769 5770 5771 5772 5773 5773 5774 5774 5775 5775 5775 5774 5774 5773 5772 5771 5770 5768 5767 5765 5763 5761 5758 5756 5753 5750 5747
5747 5747 5748 5748 5749 5750 5751 5753 5754 5755 5757 5757 5758 5759 5760 5760 5761 5762 5762 5763 5764 5764 5764 5765 5765 5765 5765 5764 5764 5764 5763 5762 5761 5759 5758 5756 5755 5753 5750 5748 5745 5742 5739 5736
5746 5746 5746 5747 5747 5747 5748 5749 5749 5750 5751 5752 5752 5753 5753 5753 5754 5754 5755 5755 5755 5756 5755 5756 5756 5756 5755 5754 5754 5754 5753 5752 5751 5750 5748 5747 5745 5742 5740 5737 5735 5732 5729 5725
5746 5745 5745 5745 5746 5746 5747 5744 5745 5745 5745 5745 5746 5746 5746 5746 5747 5747 5748 5748 5748 5747 5747 5748 5747 5747 5747 5746 5745 5745 5744 5743 5742 5741 5739 5737 5736 5733 5731 5728 5725 5722 5718 5715
5746 5745 5745 5744 5743 5743 5743 5741 5741 5741 5740 5740 5740 5740 5740 5740 5740 5740 5740 5740 5741 5740 5741 5740 5740 5740 5739 5738 5738 5737 5736 5735 5734 5733 5731 5729 5727 5724 5722 5719 5716 5712 5709 5705
5747 5745 5745 5743 5742 5741 5741 5738 5737 5738 5736 5735 5735 5735 5735 5735 5735 5735 5734 5734 5734 5734 5734 5734 5734 5733 5733 5732 5731 5730 5729 5728 5727 5725 5723 5721 5719 5717 5714 5711 5707 5704 5700 5696
5748 5746 5744 5742 5741 5740 5738 5736 5735 5736 5734 5732 5731 5730 5730 5730 5730 5730 5729 5729 5729 5729 5728 5728 5728 5727 5726 5726 5725 5724 5723 5721 5720 5718 5716 5714 5712 5709 5706 5703 5700 5696 5692 5687
5749 5747 5744 5742 5741 5741 5736 5734 5734 5732 5729 5728 5727 5727 5726 5726 5726 5725 5725 5725 5724 5724 5724 5723 5722 5722 5721 5720 5719 5718 5717 5715 5714 5712 5710 5708 5706 5703 5700 5697 5693 5689 5685 5680
5749 5748 5745 5743 5742 5738 5735 5733 5731 5729 5727 5726 5725 5724 5724 5723 5723 5722 5722 5722 5721 5721 5720 5719 5718 5717 5716 5715 5714 5713 5711 5710 5708 5706 5704 5702 5700 5697 5694 5691 5687 5683 5678 5674
5750 5747 5745 5742 5739 5737 5734 5732 5730 5728 5726 5725 5723 5722 5722 5721 5720 5720 5719 5719 5718 5717 5716 5715 5714 5713 5712 5711 5709 5708 5706 5704 5702 5701 5699 5697 5694 5692 5689 5685 5682 5678 5673 5669
5750 5748 5745 5742 5739 5736 5734 5732 5729 5727 5725 5724 5722 5721 5720 5719 5718 5718 5717 5716 5715 5714 5713 5712 5711 5709 5708 5706 5704 5702 5701 5699 5697 5696 5694 5692 5689 5687 5684 5681 5677 5673 5669 5665
5750 5748 5746 5743 5740 5737 5734 5731 5729 5727 5725 5723 5722 5721 5719 5718 5717 5716 5715 5714 5713 5712 5710 5709 5707 5705 5703 5701 5699 5698 5696 5694 5693 5691 5689 5687 5685 5682 5680 5677 5673 5670 5666 5663